Preise (Charter):

Flugzeuge Normalpreis ab 12 h/Jahr -5% ab 20 h/Jahr -8%

Cessna 172 SP

D-E

234,00 € 222,30 € 215,28 €

 

     

Reservierungen können Sie über unser Buchungssystem vornehmen.

Neben unseren Flugzeugen können wir über unser Netzwerk weitere Flugzeuge vermitteln.

Für weitere Informationen füllen Sie bitte das Kontaktformular aus oder wenden sich direkt an:

Christian Sabionski

Tel.:   +49 (0)172 8140311

Flugwetter Augsburg

[source: ADDS]
METAR
EDMA 022150Z AUTO 13003KT 9999 // NCD 12/06 Q1013 =
TAF EDMA 021700Z 0218/0303 VRB03KT CAVOK
TAF
TAF EDMA 021700Z 0218/0303 VRB03KT CAVOK =
Cookies erleichtern die Bereitstellung unserer Dienste. Mit der Nutzung unserer Dienste erklären Sie sich damit einverstanden, dass wir Cookies verwenden.
Weitere Informationen Ok